Content
SEND FEEDBACK

Daily
Averages
Monthly
Summary
Iran

MASHHAD, IRAN


Home > Middle East > Iran
Elevation: 3214 feet     Latitude: 36 16N     Longitude: 059 38E

WEATHER
 
SELECT A DAY
Number of Records: 207,577;   Date Range: 2/9/98 - 9/30/14
 
SHARE

PRINT THIS DATA

[ ← Previous Day ]
WEATHER ALMANAC - OCTOBER 15, 2013
[ Next Day → ]
[ °C ]   °F
Weather ElementAverageHighLow
Temperature58.6 °F69.8 °F (12:20 pm)46.4 °F (6:00 am)
Dewpoint28.1 °F33.8 °F (1:55 pm)23 °F (12:30 am)
Humidity31.9 %50 % (6:00 am)10 % (3:30 pm)
Barometer30.21 in30.27 in (8:20 am)30.12 in (3:30 am)
Wind Speed6.2 mph18.4 mph (4:20 pm)
Weather ElementAverage
Visibility6.2 mi
Wind DirectionESE (125.4 °)

Weather ElementTotal
Precipitation---
Heating Degree Days6.9 (Base 65)
Growing Degree Days8.1 (Base 50)
Averaged from 68 records on October 15, 2013
WEATHER CONDITIONS BREAKOUT
WIND DIRECTION BREAKOUT
WEATHER BY HOUR - OCTOBER 15, 2013
[ °C ]   °F
Local TimeTemperatureDewpointHumidityBarometerVisibilityWind DirectionWind SpeedGust SpeedPrecipitationEventsConditions
12:30 AM53.6 °F23.0 °F30 %30.18 inSouth (190°)6.9 mphClear
1:00 AM53.6 °F23.0 °F30 %30.18 inSouth (190°)6.9 mphClear
1:20 AM53.6 °F24.8 °F33 %30.18 inSSW (200°)4.6 mphClear
1:30 AM53.6 °F24.8 °F33 %30.18 inSSW (200°)4.6 mphClear
2:00 AM51.8 °F24.8 °F35 %30.18 inSouth (190°)4.6 mphClear
2:20 AM51.8 °F24.8 °F35 %30.18 inSSW (200°)4.6 mphClear
2:30 AM51.8 °F24.8 °F35 %30.18 inSSW (200°)4.6 mphClear
3:00 AM50.0 °F24.8 °F37 %30.18 inCalmClear
3:20 AM50.0 °F24.8 °F37 %30.18 inSSW (200°)4.6 mphClear
3:30 AM51.0 °F25.0 °F23 %30.12 in6.0 miSSW (200°)4.5 mph
3:30 AM50.0 °F24.8 °F37 %30.18 inSSW (200°)4.6 mphClear
4:00 AM50.0 °F24.8 °F37 %30.21 inSouth (190°)4.6 mphClear
4:20 AM48.2 °F26.6 °F43 %30.21 inCalmClear
4:30 AM48.2 °F26.6 °F43 %30.21 inCalmClear
5:00 AM48.2 °F24.8 °F40 %30.21 inCalmClear
5:20 AM48.2 °F26.6 °F43 %30.21 inCalmClear
5:30 AM48.2 °F26.6 °F43 %30.21 inCalmClear
6:00 AM46.4 °F28.4 °F50 %30.21 inCalmClear
6:20 AM50.0 °F28.4 °F43 %30.24 in6.2 miCalmPartly Cloudy
6:30 AM50.0 °F28.4 °F43 %30.24 in6.2 miCalmPartly Cloudy
7:00 AM55.4 °F28.4 °F36 %30.24 in6.2 miCalmPartly Cloudy
7:20 AM57.2 °F28.4 °F33 %30.24 in6.2 miCalmPartly Cloudy
7:30 AM57.2 °F28.4 °F33 %30.24 in6.2 miCalmPartly Cloudy
7:55 AM59.0 °F26.6 °F29 %30.24 in6.2 miSE (140°)4.6 mphScattered Clouds
8:20 AM59.0 °F26.6 °F29 %30.27 in6.2 miSE (140°)4.6 mphPartly Cloudy
8:30 AM59.0 °F26.6 °F29 %30.27 in6.2 miSE (140°)4.6 mphPartly Cloudy
9:00 AM62.6 °F26.6 °F26 %30.27 in6.2 miSSE (150°)6.9 mphScattered Clouds
9:20 AM64.4 °F26.6 °F24 %30.27 in6.2 miSE (130°)6.9 mphScattered Clouds
9:30 AM64.0 °F26.0 °F13 %30.18 in6.0 miSE (130°)6.7 mphScattered Clouds
9:30 AM64.4 °F26.6 °F24 %30.27 in6.2 miSE (130°)6.9 mphScattered Clouds
9:55 AM64.4 °F26.6 °F24 %30.24 in6.2 miEast (100°)4.6 mphScattered Clouds
10:20 AM66.2 °F26.6 °F23 %30.24 in6.2 miNE (50°)4.6 mphScattered Clouds
10:30 AM66.2 °F26.6 °F23 %30.24 in6.2 miNE (50°)4.6 mphScattered Clouds
10:55 AM68.0 °F28.4 °F23 %30.21 inENE (60°)6.9 mphClear
11:20 AM66.2 °F26.6 °F23 %30.21 inNW (310°)6.9 mphClear
11:55 AM68.0 °F26.6 °F21 %30.21 inNNE (20°)9.2 mphClear
12:20 PM69.8 °F26.6 °F20 %30.18 inSouth (180°)4.6 mphClear
12:30 PM69.8 °F26.6 °F20 %30.18 inSouth (180°)4.6 mphClear
1:00 PM69.8 °F28.4 °F21 %30.18 inEast (100°)6.9 mphClear
1:20 PM68.0 °F26.6 °F21 %30.18 inSouth (170°)11.5 mphClear
1:30 PM68.0 °F26.6 °F21 %30.18 inSouth (170°)11.5 mphClear
1:55 PM68.0 °F33.8 °F28 %30.18 inNNE (20°)4.6 mphClear
2:20 PM68.0 °F33.8 °F28 %30.18 in6.2 miSSE (160°)6.9 mphScattered Clouds
3:00 PM66.2 °F26.6 °F23 %30.18 in6.2 miSE (140°)9.2 mphMostly Cloudy
3:20 PM66.2 °F24.8 °F21 %30.18 in6.2 miESE (110°)13.8 mphMostly Cloudy
3:30 PM67.0 °F24.0 °F10 %30.12 in6.0 miESE (110°)13.4 mphScattered Clouds
3:30 PM66.2 °F24.8 °F21 %30.18 in6.2 miESE (110°)13.8 mphMostly Cloudy
3:55 PM68.0 °F26.6 °F21 %30.18 in6.2 miEast (100°)16.1 mphScattered Clouds
4:20 PM66.2 °F26.6 °F23 %30.18 in6.2 miESE (110°)18.4 mphScattered Clouds
4:30 PM66.2 °F26.6 °F23 %30.18 in6.2 miESE (110°)18.4 mphScattered Clouds
5:00 PM62.6 °F28.4 °F27 %30.18 in6.2 miSE (140°)13.8 mphScattered Clouds
5:20 PM60.8 °F30.2 °F31 %30.18 in6.2 miSE (130°)11.5 mphScattered Clouds
5:30 PM60.8 °F30.2 °F31 %30.18 in6.2 miSE (130°)11.5 mphScattered Clouds
6:00 PM60.8 °F30.2 °F31 %30.21 in6.2 miSSE (150°)11.5 mphPartly Cloudy
6:20 PM59.0 °F30.2 °F34 %30.21 in6.2 miSE (130°)6.9 mphPartly Cloudy
6:30 PM59.0 °F30.2 °F34 %30.21 in6.2 miSE (130°)6.9 mphPartly Cloudy
7:00 PM57.2 °F33.8 °F41 %30.24 in6.2 miSouth (170°)6.9 mphPartly Cloudy
7:20 PM55.4 °F33.8 °F44 %30.24 in6.2 miSSE (150°)6.9 mphPartly Cloudy
7:30 PM55.4 °F33.8 °F44 %30.24 in6.2 miSSE (150°)6.9 mphPartly Cloudy
8:00 PM55.4 °F33.8 °F44 %30.27 in6.2 miSouth (180°)6.9 mphPartly Cloudy
8:30 PM57.2 °F33.8 °F41 %30.27 in6.2 miSouth (180°)4.6 mphPartly Cloudy
9:00 PM55.4 °F33.8 °F44 %30.27 inSSW (210°)4.6 mphClear
9:30 PM55.0 °F33.0 °F31 %30.21 in6.0 miSSW (200°)4.5 mphScattered Clouds
9:30 PM55.4 °F33.8 °F44 %30.27 inSSW (200°)4.6 mphClear
10:00 PM55.4 °F33.8 °F44 %30.27 inSSW (210°)6.9 mphClear
10:30 PM55.4 °F33.8 °F44 %30.27 inSSW (210°)6.9 mphClear
11:00 PM53.6 °F33.8 °F47 %30.27 inSouth (180°)4.6 mphClear
11:30 PM53.6 °F33.8 °F47 %30.27 inSSW (200°)6.9 mphClear
Hourly data recorded from OIMM, located miles away from Mashhad, Iran







STORIES FROM OUR PARTNERS